Regional Weather Roundup
Issued by NWS

Home | Current Version | Previous Version | Text Only | Print | Product List | Glossary Off
Versions: 1 2 3 4 5 6 7 8 9 10 11 12 13 14 15 16 17 18 19 20 21 22 23 24 25 26 27 28

000
ASUS45 KCYS 220810
RWRWY

WYOMING REGIONAL WEATHER ROUNDUP
NATIONAL WEATHER SERVICE CHEYENNE WY
200 AM MDT SAT JUL 22 2017

NOTE:  "FAIR" INDICATES FEW OR NO CLOUDS BELOW 12,000 FEET
WITH NO SIGNIFICANT WEATHER AND/OR OBSTRUCTIONS TO VISIBILITY.

WYZ001-220900-
YELLOWSTONE NATIONAL PARK

CITY           SKY/WX    TMP DP  RH WIND       PRES   REMARKS
LK YELLOWSTONE   N/A     42  36  79 CALM      30.38S
W YELLOWSTONE  NOT AVBL

$$
WYZ002>013-054>058-071-098>099-220900-
NORTHERN WYOMING

CITY           SKY/WX    TMP DP  RH WIND       PRES   REMARKS
JACKSON        FAIR      46  37  71 N5        30.29R
CODY           FAIR      67  33  28 CALM      30.18R
GREYBULL       FAIR      71  32  23 NW5       30.03R
WORLAND        FAIR      65  41  41 CALM      30.05R
SHERIDAN       FAIR      59  45  59 W3        30.07R
BUFFALO        FAIR      66  38  35 W8        30.13S
GILLETTE       FAIR      59  37  44 S5        30.07S
HULETT         FAIR      59  41  51 S6        30.07S
NEWCASTLE      FAIR      72  36  26 E8        30.07S

$$
WYZ014>020-022>026-101>103-220900-
CENTRAL WYOMING

CITY           SKY/WX    TMP DP  RH WIND       PRES   REMARKS
BIG PINEY      FAIR      47  35  63 N8        30.32R
PINEDALE       FAIR      43  36  75 W6        30.32S
DUBOIS         FAIR      50  28  43 NW10      30.31S
LANDER         FAIR      64  33  31 W13       30.18S
RIVERTON       FAIR      66  26  22 NW14      30.15S
CASPER         FAIR      71  48  43 SW10G21   30.12R
DOUGLAS        FAIR      66  50  56 CALM      30.11S

$$
WYZ021-027>030-104>119-220900-
SOUTHERN WYOMING

CITY           SKY/WX    TMP DP  RH WIND       PRES   REMARKS
EVANSTON       FAIR      59  40  49 E7        30.31R
KEMMERER         N/A     55  32  41 CALM      30.32R
FORT BRIDGER   FAIR      63  34  34 W8        30.32S
ROCK SPRINGS   FAIR      61  49  64 SE9       30.27F
RAWLINS        FAIR      58  48  69 SW7       30.29S
SARATOGA       FAIR      57  48  72 SE8       30.31S
LARAMIE        FAIR      52  50  93 SE8       30.29F
CHEYENNE       FAIR      60  53  77 SW12      30.22S
TORRINGTON     FAIR      65  57  75 SE7       30.08S
PINE BLUFFS    FAIR      66  52  59 S8        30.18R

$$




USA.gov is the U.S. government's official web portal to all federal, state and local government web resources and services.